EW5282 Weather Reports


time (UTC)temp
C
wind
direction
speed
KPH
gust
KPH
rain 1hr
cm
rain 24hr
cm
rain mn
cm
humidity
%
barometer
mb
20260504174543 22 188 3.2 17.7 0.00 0.00 0.00 40 1013.9
20260504174018 22 120 3.2 17.7 0.00 0.00 0.00 41 1014.0
20260504173522 22 137 3.2 17.7 0.00 0.00 0.00 41 1014.2
20260504173041 22 151 3.2 14.5 0.00 0.00 0.00 43 1014.1
20260504172518 22 90 3.2 14.5 0.00 0.00 0.00 39 1014.1
20260504172018 22 259 3.2 14.5 0.00 0.00 0.00 41 1014.2
20260504171542 22 262 3.2 12.9 0.00 0.00 0.00 40 1014.0
20260504171023 22 236 4.8 16.1 0.00 0.00 0.00 39 1014.1
20260504170519 21 199 3.2 16.1 0.00 0.00 0.00 42 1014.3
20260504151020 21 257 3.2 17.7 0.00 0.00 0.00 38 1015.4
20260504150521 21 264 3.2 17.7 0.00 0.00 0.00 41 1015.5
20260504141019 18 86 1.6 12.9 0.00 0.00 0.00 44 1015.7
20260504140525 18 284 3.2 12.9 0.00 0.00 0.00 44 1015.8
20260504130520 12 175 1.6 4.8 0.00 0.00 0.00 64 1016.5
20260504110520 8 0 0.0 3.2 0.00 0.00 0.00 70 1016.8
20260504100519 9 0 0.0 0.0 0.00 0.00 0.00 66 1016.3
20260504081549 9 0 1.6 4.8 0.00 0.00 0.00 61 1016.6
20260504081019 9 236 0.0 4.8 0.00 0.00 0.00 62 1016.6
20260504080519 9 0 0.0 4.8 0.00 0.00 0.00 62 1016.6
20260504050519 9 0 0.0 3.2 0.00 0.00 0.00 64 1016.8
20260504045518 9 0 0.0 8.0 0.00 0.00 0.00 65 1016.7
20260504045018 9 0 0.0 9.7 0.00 0.00 0.00 64 1016.7
20260504044539 9 246 0.0 9.7 0.00 0.00 0.00 63 1016.8
20260504044021 9 0 0.0 1.6 0.00 0.00 0.00 64 1016.8
20260504043517 9 0 0.0 1.6 0.00 0.00 0.00 64 1016.9
20260504043040 9 0 0.0 3.2 0.00 0.00 0.00 61 1016.8
20260504042521 9 0 0.0 3.2 0.00 0.00 0.00 61 1016.7
20260504042021 9 0 0.0 3.2 0.00 0.00 0.00 60 1016.6
20260504041535 9 223 0.0 3.2 0.00 0.00 0.00 60 1016.6
20260504041021 9 0 0.0 3.2 0.00 0.00 0.00 60 1016.7
20260504040520 9 0 0.0 3.2 0.00 0.00 0.00 61 1016.7
20260504040035 9 0 0.0 0.0 0.00 0.00 0.00 61 1016.7
20260504035518 9 0 0.0 0.0 0.00 0.00 0.00 63 1016.7
20260504035020 9 0 0.0 0.0 0.00 0.00 0.00 64 1016.7
20260504034543 9 0 0.0 0.0 0.00 0.00 0.00 62 1016.6
20260504034024 9 0 0.0 0.0 0.00 0.00 0.00 62 1016.5
20260504033518 9 0 0.0 0.0 0.00 0.00 0.00 61 1016.6
20260504033041 9 0 0.0 0.0 0.00 0.00 0.00 61 1016.5
20260504032518 9 0 0.0 0.0 0.00 0.00 0.00 60 1016.5
20260504032020 9 0 0.0 0.0 0.00 0.00 0.00 61 1016.4
20260504031539 9 0 0.0 1.6 0.00 0.00 0.00 61 1016.6
20260504031021 9 0 0.0 1.6 0.00 0.00 0.00 60 1016.5
20260504030521 9 0 0.0 1.6 0.00 0.00 0.00 60 1016.6
20260504030039 9 0 0.0 0.0 0.00 0.00 0.00 60 1016.5
20260504025520 9 0 0.0 0.0 0.00 0.00 0.00 60 1016.4
20260504025019 9 0 0.0 0.0 0.00 0.00 0.00 60 1016.4
20260504024542 9 0 0.0 0.0 0.00 0.00 0.00 60 1016.5
20260504024018 9 0 0.0 0.0 0.00 0.00 0.00 60 1016.4
20260504023521 9 0 0.0 0.0 0.00 0.00 0.00 59 1016.5
20260504023040 9 0 0.0 0.0 0.00 0.00 0.00 59 1016.3
20260504022521 9 0 0.0 0.0 0.00 0.00 0.00 58 1016.4
20260504022018 9 0 0.0 0.0 0.00 0.00 0.00 58 1016.5
20260504021537 9 0 0.0 0.0 0.00 0.00 0.00 58 1016.2
20260504021019 9 0 0.0 0.0 0.00 0.00 0.00 58 1016.2
20260504020518 10 0 0.0 0.0 0.00 0.00 0.00 57 1016.2
20260504020040 10 0 0.0 0.0 0.00 0.00 0.00 57 1016.3
20260504015519 10 0 0.0 0.0 0.00 0.00 0.00 57 1016.2
20260504015030 10 0 0.0 0.0 0.00 0.00 0.00 56 1016.1
20260504014550 10 0 0.0 0.0 0.00 0.00 0.00 56 1016.0
20260504014025 10 0 0.0 0.0 0.00 0.00 0.00 56 1016.1
20260504013522 10 0 0.0 0.0 0.00 0.00 0.00 56 1015.9
20260504013041 10 0 0.0 0.0 0.00 0.00 0.00 55 1015.8
20260504012522 10 0 0.0 0.0 0.00 0.00 0.00 56 1015.8
20260504012018 10 0 0.0 0.0 0.00 0.00 0.00 56 1015.8
20260504011541 10 0 0.0 0.0 0.00 0.00 0.00 56 1015.8
20260504011021 11 0 0.0 0.0 0.00 0.00 0.00 56 1015.8
20260504010524 11 0 0.0 0.0 0.00 0.00 0.00 56 1015.9
20260504010046 11 0 0.0 0.0 0.00 0.00 0.00 55 1015.6
20260504005521 11 0 0.0 0.0 0.00 0.00 0.00 54 1015.6
20260504005024 11 0 0.0 0.0 0.00 0.00 0.00 56 1015.7
20260504004542 11 0 0.0 0.0 0.00 0.00 0.00 56 1015.7
20260504004020 11 0 0.0 0.0 0.00 0.00 0.00 54 1015.7
20260504003519 11 0 0.0 0.0 0.00 0.00 0.00 53 1015.5
20260504003042 11 0 0.0 0.0 0.00 0.00 0.00 52 1015.3
20260504002521 11 0 0.0 0.0 0.00 0.00 0.00 52 1015.4
20260504002021 11 0 0.0 0.0 0.00 0.00 0.00 54 1015.4
20260504001547 12 0 0.0 0.0 0.00 0.00 0.00 51 1015.4
20260504001022 12 0 0.0 0.0 0.00 0.00 0.00 52 1015.4
20260504000521 12 0 0.0 0.0 0.00 0.00 0.00 51 1015.4
20260504000044 12 0 0.0 0.0 0.00 0.00 0.00 50 1015.4
20260503235521 13 0 0.0 0.0 0.00 0.00 0.00 52 1015.3
20260503235021 13 0 0.0 0.0 0.00 0.00 0.00 45 1015.3
20260503234536 13 0 0.0 0.0 0.00 0.00 0.00 45 1015.3
20260503234021 13 0 0.0 0.0 0.00 0.00 0.00 45 1015.3
20260503233520 14 0 0.0 0.0 0.00 0.00 0.00 46 1015.2
20260503233045 14 0 0.0 3.2 0.00 0.00 0.00 42 1015.1
20260503232519 14 0 0.0 3.2 0.00 0.00 0.00 40 1015.0
20260503232020 15 0 0.0 1.6 0.00 0.00 0.00 41 1015.0
20260503231544 15 0 0.0 3.2 0.00 0.00 0.00 42 1015.0
20260503231022 15 0 0.0 3.2 0.00 0.00 0.00 39 1015.0
20260503230522 15 0 0.0 6.4 0.00 0.00 0.00 37 1015.0
20260503230040 15 152 0.0 6.4 0.00 0.00 0.00 38 1015.1
20260503225525 15 154 0.0 6.4 0.00 0.00 0.00 39 1015.1
20260503225021 16 184 0.0 4.8 0.00 0.00 0.00 36 1015.1
20260503224543 16 125 0.0 4.8 0.00 0.00 0.00 37 1015.0
20260503224023 16 0 0.0 4.8 0.00 0.00 0.00 36 1015.0
20260503223519 16 208 0.0 6.4 0.00 0.00 0.00 35 1015.1
20260503223036 16 246 1.6 6.4 0.00 0.00 0.00 35 1015.1
20260503222516 16 207 1.6 6.4 0.00 0.00 0.00 34 1015.1
20260503222020 16 188 1.6 6.4 0.00 0.00 0.00 34 1015.2
20260503221544 16 218 0.0 4.8 0.00 0.00 0.00 34 1015.1
20260503221017 17 244 0.0 6.4 0.00 0.00 0.00 35 1015.3
20260503220518 17 257 1.6 12.9 0.00 0.00 0.00 33 1015.1
20260503220052 17 195 3.2 12.9 0.00 0.00 0.00 34 1015.2
20260503215519 17 163 1.6 9.7 0.00 0.00 0.00 32 1015.3
20260503215019 17 261 1.6 6.4 0.00 0.00 0.00 32 1015.4
20260503214542 17 211 0.0 4.8 0.00 0.00 0.00 31 1015.3
20260503214019 18 182 0.0 4.8 0.00 0.00 0.00 35 1015.3
20260503213519 18 207 0.0 9.7 0.00 0.00 0.00 32 1015.3
20260503213041 17 198 3.2 9.7 0.00 0.00 0.00 33 1015.4
20260503212521 18 184 3.2 11.3 0.00 0.00 0.00 32 1015.3
20260503212021 18 224 3.2 12.9 0.00 0.00 0.00 32 1015.4
20260503211541 18 145 3.2 12.9 0.00 0.00 0.00 32 1015.4
20260503211021 18 250 1.6 12.9 0.00 0.00 0.00 33 1015.3
20260503210522 18 238 1.6 12.9 0.00 0.00 0.00 34 1015.3
20260503210054 18 0 1.6 11.3 0.00 0.00 0.00 34 1015.3
20260503205520 17 265 1.6 6.4 0.00 0.00 0.00 34 1015.5
20260503205021 17 0 1.6 6.4 0.00 0.00 0.00 30 1015.6
20260503204557 18 260 1.6 6.4 0.00 0.00 0.00 33 1015.7
20260503204022 18 153 1.6 12.9 0.00 0.00 0.00 32 1015.7
20260503203524 18 163 3.2 12.9 0.00 0.00 0.00 29 1015.7
20260503203041 18 261 1.6 8.0 0.00 0.00 0.00 31 1015.8
20260503202523 18 271 3.2 8.0 0.00 0.00 0.00 30 1016.1
20260503202022 18 156 1.6 4.8 0.00 0.00 0.00 36 1016.1
20260503201541 18 83 1.6 11.3 0.00 0.00 0.00 30 1016.2
20260503201020 17 130 3.2 14.5 0.00 0.00 0.00 31 1016.3
20260503200521 18 291 4.8 14.5 0.00 0.00 0.00 31 1016.2
20260503200045 18 157 4.8 12.9 0.00 0.00 0.00 31 1016.4
20260503195521 18 0 1.6 17.7 0.00 0.00 0.00 30 1016.4
20260503195020 18 331 1.6 17.7 0.00 0.00 0.00 32 1016.5
20260503194540 18 262 3.2 14.5 0.00 0.00 0.00 34 1016.6
20260503194021 17 231 1.6 14.5 0.00 0.00 0.00 32 1016.6
20260503193522 17 344 3.2 14.5 0.00 0.00 0.00 31 1016.6
20260503193044 17 175 3.2 12.9 0.00 0.00 0.00 29 1016.9
20260503192521 18 263 3.2 12.9 0.00 0.00 0.00 34 1017.0
20260503192025 17 274 3.2 11.3 0.00 0.00 0.00 34 1017.0
20260503191535 17 252 0.0 11.3 0.00 0.00 0.00 35 1017.1
20260503191024 18 219 1.6 11.3 0.00 0.00 0.00 34 1017.2
20260503190521 17 0 1.6 16.1 0.00 0.00 0.00 32 1017.3
20260503190046 17 165 3.2 16.1 0.00 0.00 0.00 30 1017.3
20260503185520 18 275 4.8 12.9 0.00 0.00 0.00 31 1017.4
20260503185025 18 293 1.6 9.7 0.00 0.00 0.00 32 1017.3
20260503184540 17 281 1.6 6.4 0.00 0.00 0.00 33 1017.5
20260503184021 17 0 1.6 9.7 0.00 0.00 0.00 33 1017.6
20260503183522 17 65 3.2 9.7 0.00 0.00 0.00 29 1017.6
20260503183045 18 263 1.6 9.7 0.00 0.00 0.00 32 1017.7
20260503182521 17 346 3.2 16.1 0.00 0.00 0.00 32 1017.8
20260503182021 17 47 4.8 16.1 0.00 0.00 0.00 33 1017.8
20260503181540 16 277 1.6 9.7 0.00 0.00 0.00 30 1017.8
20260503181021 16 253 3.2 9.7 0.00 0.00 0.00 34 1018.0
20260503180521 17 278 3.2 9.7 0.00 0.00 0.00 34 1018.1
20260503180059 17 262 3.2 9.7 0.00 0.00 0.00 35 1018.2
20260503175522 17 252 3.2 11.3 0.00 0.00 0.00 33 1018.2
20260503175021 16 228 1.6 11.3 0.00 0.00 0.00 35 1018.1